Home > Time Zones > World Clock > Weather > Norway > Odda > Past weeks

Flag for Norway Weather past 2 weeks in Odda, Norway

Now
34 °F

Chilly.


Feels Like: 34 °F
Forecast: 27 / 40 °F
Wind: No wind

Location: Midtlaeger

Current Time: Mar 31, 2015 at 3:07:47 PM

Latest Report: Mar 31, 2015 at 2:00 PM


Visibility: N/A

Pressure: 28.97 "Hg

Humidity: 30%

Dew point: 6 °F

Location of OddaLocation

Historic Weather in Odda — Graph

°F

Odda temperature yesterday

Maximum temperature yesterday: 28 °F (at 4:00 PM)
Minimum temperature yesterday: 21 °F (at 11:00 PM)
Average temperature yesterday: 25 °F

Past Weeks' High & Low Weather Summary

 TemperatureHumidityPressure
High43 °F (Mar 18, 2:00 PM)94% (Mar 17, 12:00 AM)30.75 "Hg (Mar 17, 12:00 AM)
Low14 °F (Mar 21, 6:00 PM)28% (Mar 21, 2:00 PM)28.97 "Hg (Mar 31, 1:00 PM)
Average26 °F82%29.91 "Hg
* Reported Mar 16 1:00 PM — Mar 31 2:00 PM, Odda, Weather by CustomWeather, © 2015

Note: Actual official high and low records may vary slightly from our data, if they occured in-between our weather recording intervals... More about our weather records

Advertising

Odda weather history for previous 24 hours

 ConditionsComfort  
Time TempWeatherWind HumidityBarometerVisibility
2:00 PM
Tue, Mar 31
34 °FChilly.No wind30%28.97 "HgN/A
1:00 PM32 °FChilly.No wind39%28.97 "HgN/A
12:00 PM24 °FCold.No wind55%29.03 "HgN/A
11:00 AM25 °FChilly.No wind52%29.00 "HgN/A
10:00 AM23 °FCold.No wind58%29.00 "HgN/A
9:00 AM19 °FCold.No wind68%29.03 "HgN/A
8:00 AM17 °FCold.No wind78%29.03 "HgN/A
7:00 AM16 °FCold.No wind82%29.03 "HgN/A
6:00 AM15 °FCold.No wind82%29.06 "HgN/A
4:00 AM20 °FCold.No wind85%29.09 "HgN/A
3:00 AM20 °FCold.No wind86%29.12 "HgN/A
2:00 AM19 °FCold.No wind88%29.15 "HgN/A
1:00 AM21 °FCold.6 mph85%29.15 "HgN/A
12:00 AM22 °FCold.No wind89%29.18 "HgN/A
11:00 PM
Mon, Mar 30
21 °FCold.3 mph89%29.21 "HgN/A
10:00 PM23 °FCold.No wind92%29.21 "HgN/A
9:00 PM24 °FCold.7 mph92%29.23 "HgN/A
8:00 PM24 °FCold.9 mph89%29.23 "HgN/A
7:00 PM25 °FCold.9 mph87%29.23 "HgN/A
6:00 PM26 °FChilly.1 mph90%29.21 "HgN/A
5:00 PM26 °FChilly.8 mph79%29.21 "HgN/A
4:00 PM28 °FChilly.7 mph68%29.18 "HgN/A
3:00 PM28 °FChilly.7 mph72%29.18 "HgN/A
Weather by CustomWeather, © 2015

See weather overviewHow to use our weather pages